Wind_Speed
15 13 13 15 11 16 16 15 13 10 6 12 10 9 11 14 19 22 24 24 23 21 21 19 20 19 24 23 20 17 16 18 10 23 16 23 19 22 23 23 21 21 22
13 12 14 18 11 13 15 14 16 10 8 11 11 10 11 13 15 20 22 22 21 20 22 24 19 21 22 21 20 14 12 15 7 17 23 21 18 20 22 25 22 23 21
12 10 13 15 12 13 15 13 11 13 9 7 9 9 10 12 13 15 18 20 19 19 17 20 21 20 21 19 19 17 12 10 8 15 16 16 21 27 28 27 23 24 24
12 10 11 13 13 11 12 14 9 11 8 6 5 7 9 9 13 16 16 16 16 17 16 17 16 15 15 17 16 14 10 9 17 17 18 22 25 27 28 27 25 25 25
10 11 10 12 13 10 11 15 15 9 8 8 4 6 9 11 14 16 16 17 16 15 16 15 15 11 13 20 15 13 10 7 12 20 21 25 25 23 27 27 28 28 15
8 10 9 11 14 13 12 13 14 14 11 13 3 7 12 14 13 12 16 17 16 15 13 12 11 8 12 16 8 7 13 12 11 23 22 24 26 27 30 27 24 10 11
8 10 11 14 12 14 16 16 18 18 15 18 14 6 11 16 14 12 15 11 17 17 14 12 10 11 13 13 9 12 7 11 21 26 24 27 27 29 20 13 12 9 5
7 9 10 12 13 12 14 15 19 18 16 18 19 16 12 14 15 15 13 17 14 12 16 19 11 9 11 10 13 16 25 21 25 22 20 19 16 15 13 11 7 3 5
5 7 8 10 12 12 14 15 16 18 18 20 24 22 18 20 18 19 16 11 9 6 8 7 9 11 13 16 24 29 31 29 26 21 18 16 14 11 7 5 5 5 7
3 5 6 10 12 13 14 15 16 17 17 18 20 24 25 20 18 13 14 14 17 19 21 21 22 30 27 27 24 26 25 20 18 17 14 10 7 7 7 6 4 8 12
3 3 5 5 8 9 10 11 11 12 15 17 19 21 23 24 27 21 15 17 19 18 19 20 20 20 21 18 17 15 14 15 12 8 6 5 6 6 6 7 9 12 15
3 3 5 5 3 4 7 9 12 13 15 16 17 18 20 21 21 21 19 17 18 18 17 19 17 17 15 14 13 12 10 9 7 6 6 7 8 8 8 10 13 15 18
2 3 5 6 5 5 5 6 10 14 15 17 19 20 20 20 19 18 18 17 16 15 14 14 13 11 9 8 7 5 5 4 3 3 4 6 8 9 12 15 17 18 22
3 4 5 5 6 7 8 5 7 9 11 13 15 16 18 18 17 17 16 15 14 12 11 9 8 7 6 5 3 2 2 1 1 4 7 10 12 15 18 20 21 23 27
6 4 4 6 6 7 9 8 8 7 6 7 9 10 11 12 12 12 11 10 8 7 6 4 3 2 2 3 4 5 6 7 8 10 13 15 18 20 21 22 24 28 31
10 8 6 6 7 9 10 8 8 10 7 5 5 3 3 4 5 6 5 5 4 4 5 5 5 5 6 7 8 8 8 10 12 15 17 19 20 22 24 26 29 32 36
13 13 11 9 9 10 12 12 10 9 9 8 7 7 4 4 5 6 5 4 4 4 5 6 7 8 10 11 11 11 13 14 17 20 22 23 25 28 31 32 32 34 37
13 14 14 14 14 13 13 13 13 13 12 12 12 12 11 10 10 8 7 7 7 6 7 8 9 10 11 11 12 14 16 18 20 19 22 27 29 30 31 34 36 37 39
18 16 16 17 18 17 16 15 16 16 17 17 17 17 17 16 14 12 12 13 13 12 13 13 12 12 14 15 16 16 17 20 22 26 31 34 33 31 33 36 38 41 45
21 20 18 19 20 18 19 20 19 19 19 20 20 21 19 18 18 16 16 16 17 18 18 17 17 18 18 19 21 20 22 24 24 27 31 31 36 34 36 39 40 44 45
23 21 21 20 20 20 19 20 23 23 23 21 22 23 21 20 19 18 17 18 19 18 18 20 21 25 26 27 27 27 28 30 35 34 31 30 29 33 37 45 49 53 51
27 24 23 23 22 22 23 22 22 24 25 26 24 23 21 20 20 19 19 19 21 22 24 24 25 27 25 27 28 31 36 36 39 42 33 27 31 37 40 46 53 54 58
30 27 25 25 25 25 25 25 23 23 25 27 29 28 25 22 20 20 21 23 25 26 28 29 30 31 32 34 40 34 37 37 33 35 39 40 41 41 46 52 52 53 52
32 29 29 28 27 26 24 24 25 23 24 27 28 28 28 27 26 27 28 30 31 31 31 32 33 34 37 39 36 35 30 32 37 41 44 43 42 44 51 53 56 52 47
36 33 31 29 28 26 26 25 27 27 25 23 23 25 27 28 29 30 31 32 32 31 33 35 36 38 40 39 36 35 37 41 44 45 45 45 47 46 47 51 53 44 36
39 35 34 33 30 29 27 26 27 28 26 24 25 26 28 29 30 31 32 33 33 33 34 35 37 38 39 40 40 42 44 45 45 45 42 42 42 51 51 52 46 42 37
Wind_Direction
353 1 353 357 355 16 39 31 21 37 86 128 127 121 130 143 153 154 151 146 141 138 138 136 134 162 168 162 176 184 195 187 154 175 172 171 179 197 198 188 192 189 196
351 3 3 14 11 26 37 37 37 56 95 125 127 131 131 137 148 159 163 162 157 157 148 153 152 154 161 165 172 187 178 169 165 178 191 196 190 182 191 179 185 188 193
354 12 10 20 21 30 41 45 41 57 82 125 128 140 147 150 154 159 164 172 172 177 179 174 172 181 170 177 183 187 199 174 187 174 168 172 190 185 183 187 192 190 195
4 25 16 17 23 25 45 40 34 56 75 98 132 147 149 158 168 161 155 162 174 180 190 197 199 188 182 175 178 199 187 158 177 180 178 179 166 182 181 186 185 194 202
18 31 30 23 16 32 63 58 47 63 69 68 135 140 142 136 146 147 159 160 165 174 187 193 207 200 165 158 170 196 221 168 179 172 166 171 176 182 180 186 190 198 189
19 41 46 44 54 70 63 53 43 59 64 47 68 169 169 145 141 145 141 143 146 158 177 187 203 162 162 179 197 176 203 183 172 166 183 180 180 180 182 192 199 151 189
37 58 70 74 70 66 72 68 60 70 73 42 34 64 200 165 158 141 140 132 152 150 152 151 158 172 175 190 203 182 191 180 155 160 166 170 174 183 159 141 167 193 218
52 66 74 84 86 76 75 73 71 72 68 63 53 59 99 158 161 156 164 139 146 155 162 168 167 174 192 225 177 176 175 170 158 149 148 145 132 138 156 176 192 239 264
65 69 81 81 89 87 83 79 76 74 66 61 58 67 87 129 140 159 150 157 157 165 167 199 198 189 171 160 150 160 161 163 162 142 127 140 157 163 174 213 222 252 288
78 88 83 94 95 90 84 83 80 80 78 73 70 70 76 97 106 140 125 118 133 125 131 127 132 142 149 155 154 163 151 126 130 147 155 157 160 182 198 219 252 277 297
80 128 118 104 98 93 89 88 78 80 81 80 81 82 81 83 84 90 109 124 116 118 127 117 134 134 118 107 110 121 137 147 148 147 151 172 198 214 239 257 278 296 304
125 167 170 154 131 82 75 84 94 94 91 88 87 88 90 91 90 93 93 88 94 106 113 117 122 125 134 140 145 150 148 145 153 166 186 212 231 250 273 287 296 301 301
151 176 195 195 176 141 106 93 101 101 98 94 91 89 87 86 92 97 102 107 108 107 107 113 117 120 124 130 140 155 164 161 169 205 244 262 277 294 299 296 293 293 298
223 191 199 207 196 171 150 141 131 115 103 98 92 89 87 86 87 88 86 86 89 97 106 112 118 127 134 142 139 119 70 58 310 290 292 298 300 295 290 290 291 295 299
210 208 206 207 202 184 169 166 177 164 145 129 114 100 87 77 71 68 69 74 77 80 79 71 52 24 352 330 320 323 330 322 309 301 297 293 288 284 286 290 298 300 298
214 209 209 214 206 197 193 188 194 203 201 201 184 152 92 67 54 43 35 28 15 0 353 345 334 320 310 312 317 320 311 302 297 291 288 286 288 292 294 297 298 298 300
225 219 217 215 218 216 212 207 207 213 227 233 231 238 260 287 309 324 327 321 316 313 303 291 286 288 296 302 304 300 296 296 298 301 300 299 299 299 298 297 297 298 300
226 227 233 231 228 227 227 226 224 226 229 238 243 247 259 269 284 295 289 281 289 304 296 282 277 277 281 289 293 291 293 294 290 298 307 294 291 295 296 297 297 298 297
233 224 229 236 237 236 236 236 238 240 243 246 250 254 257 265 274 276 271 268 272 283 288 279 270 271 275 279 300 303 299 297 290 296 299 301 304 300 297 297 298 300 300
228 228 230 230 232 239 243 240 236 239 247 252 255 257 260 266 268 262 273 274 275 279 283 279 271 265 265 274 282 299 302 303 306 303 292 290 295 300 303 305 305 310 311
221 223 225 229 233 237 240 240 241 242 242 249 254 258 261 264 267 271 268 269 274 274 272 273 280 281 281 284 290 290 290 292 300 294 296 296 296 300 301 304 302 305 307
228 224 230 230 227 228 230 239 246 246 246 246 250 252 261 267 269 263 262 264 267 268 272 275 282 284 291 289 285 294 295 297 289 306 296 298 295 299 305 302 302 307 308
228 227 229 231 234 237 239 240 240 247 249 248 251 256 257 261 260 261 266 269 268 268 269 276 279 285 287 293 293 284 290 291 290 293 298 297 294 297 303 312 306 309 311
229 231 231 227 231 237 241 240 234 239 244 245 249 252 252 254 258 265 274 278 280 278 276 276 280 283 287 292 294 293 288 292 293 294 295 297 299 304 297 304 306 305 306
227 232 234 234 232 236 239 242 245 244 246 245 249 253 255 259 262 266 270 274 278 281 279 278 279 282 285 287 288 292 295 297 296 296 296 295 295 296 303 306 299 296 296
225 233 233 234 237 238 237 239 245 247 247 248 250 253 257 262 265 266 268 269 272 276 282 283 282 283 286 285 285 289 292 296 298 296 297 298 298 294 304 299 305 296 305
Height
5722 5719 5716 5713 5710 5707 5702 5699 5696 5694 5693 5695 5697 5699 5700 5702 5704 5706 5708 5712 5715 5718 5721 5722 5725 5729 5733 5737 5741 5745 5748 5750 5754 5758 5763 5769 5773 5777 5781 5786 5792 5796 5800
5724 5721 5717 5714 5711 5708 5704 5702 5700 5698 5697 5698 5699 5701 5703 5704 5707 5709 5712 5714 5718 5721 5724 5726 5729 5732 5736 5739 5744 5747 5748 5751 5754 5759 5763 5768 5772 5777 5781 5787 5791 5796 5800
5724 5722 5719 5716 5713 5710 5708 5705 5704 5702 5701 5701 5702 5703 5705 5707 5708 5711 5714 5718 5721 5723 5726 5730 5732 5736 5739 5741 5744 5747 5750 5752 5755 5759 5763 5766 5771 5776 5783 5787 5791 5795 5798
5725 5723 5720 5717 5715 5712 5710 5709 5706 5706 5704 5704 5704 5705 5707 5708 5710 5713 5715 5719 5723 5725 5728 5731 5733 5737 5741 5743 5746 5748 5749 5752 5755 5759 5763 5767 5772 5777 5782 5786 5791 5795 5797
5727 5724 5722 5719 5716 5713 5713 5712 5710 5710 5708 5707 5707 5707 5708 5710 5712 5715 5717 5720 5723 5726 5729 5732 5733 5738 5741 5745 5747 5748 5750 5753 5756 5760 5763 5769 5773 5778 5782 5786 5790 5792 5796
5728 5726 5724 5722 5720 5717 5716 5715 5714 5712 5711 5709 5707 5708 5710 5711 5714 5717 5719 5721 5724 5726 5729 5732 5734 5738 5743 5746 5748 5750 5751 5754 5758 5761 5765 5770 5774 5777 5781 5786 5789 5794 5799
5729 5728 5727 5725 5724 5723 5721 5719 5719 5716 5714 5713 5710 5708 5709 5712 5715 5719 5721 5724 5725 5727 5730 5733 5736 5738 5742 5747 5749 5750 5752 5755 5759 5763 5766 5771 5774 5779 5782 5788 5791 5795 5796
5731 5731 5730 5730 5728 5727 5726 5724 5723 5721 5720 5718 5714 5712 5710 5712 5716 5721 5723 5726 5728 5730 5731 5733 5737 5739 5742 5745 5748 5751 5755 5759 5763 5767 5771 5773 5778 5782 5786 5790 5792 5793 5794
5733 5733 5733 5733 5732 5731 5730 5729 5728 5726 5725 5723 5721 5718 5717 5717 5720 5723 5726 5728 5730 5731 5732 5734 5736 5739 5743 5745 5748 5754 5758 5762 5765 5769 5775 5779 5782 5785 5789 5792 5791 5792 5791
5734 5735 5736 5736 5736 5735 5735 5734 5733 5731 5731 5729 5728 5726 5725 5724 5726 5728 5729 5731 5733 5735 5736 5739 5741 5745 5749 5753 5756 5759 5762 5766 5771 5775 5778 5782 5784 5786 5788 5789 5788 5789 5789
5735 5737 5738 5738 5738 5739 5738 5738 5737 5736 5735 5735 5734 5733 5733 5733 5734 5736 5737 5738 5740 5742 5744 5746 5749 5752 5755 5759 5762 5765 5769 5771 5774 5777 5779 5781 5783 5785 5785 5785 5785 5785 5784
5736 5737 5739 5740 5740 5740 5740 5741 5741 5740 5740 5740 5740 5740 5740 5740 5741 5742 5744 5746 5747 5749 5751 5753 5757 5758 5762 5764 5767 5770 5772 5773 5775 5776 5778 5780 5781 5782 5782 5782 5782 5780 5779
5736 5738 5739 5741 5742 5742 5743 5743 5744 5745 5745 5744 5745 5745 5745 5746 5747 5748 5750 5751 5754 5755 5757 5759 5761 5763 5765 5767 5769 5771 5772 5773 5775 5776 5777 5778 5779 5779 5779 5777 5776 5775 5772
5736 5737 5739 5741 5742 5744 5745 5745 5747 5747 5748 5749 5749 5749 5750 5751 5752 5753 5754 5755 5757 5759 5760 5762 5763 5765 5767 5769 5770 5771 5772 5773 5775 5776 5776 5775 5774 5774 5774 5773 5771 5769 5767
5734 5736 5739 5741 5742 5744 5745 5747 5748 5749 5750 5751 5752 5752 5753 5754 5755 5756 5757 5758 5759 5761 5762 5763 5764 5765 5766 5767 5769 5769 5770 5770 5771 5771 5771 5771 5772 5772 5770 5767 5764 5762 5759
5733 5735 5737 5739 5742 5743 5744 5746 5748 5750 5751 5753 5753 5754 5755 5755 5756 5757 5758 5759 5760 5761 5761 5762 5763 5763 5764 5765 5766 5766 5766 5767 5767 5768 5768 5767 5765 5763 5760 5758 5756 5754 5749
5729 5732 5734 5737 5740 5742 5744 5745 5747 5749 5751 5752 5754 5755 5756 5757 5757 5758 5759 5759 5759 5760 5761 5761 5761 5761 5761 5761 5762 5762 5762 5763 5762 5762 5760 5759 5757 5756 5754 5751 5748 5744 5741
5725 5729 5731 5734 5736 5738 5741 5744 5746 5747 5749 5751 5752 5753 5754 5755 5756 5757 5757 5757 5758 5758 5758 5758 5758 5758 5757 5757 5757 5757 5758 5758 5757 5756 5754 5752 5751 5749 5746 5743 5740 5737 5733
5721 5724 5727 5730 5732 5734 5736 5739 5742 5744 5746 5748 5749 5750 5751 5752 5754 5754 5755 5755 5755 5755 5755 5755 5755 5755 5754 5754 5754 5753 5752 5751 5750 5748 5747 5745 5743 5740 5737 5734 5730 5726 5722
5715 5718 5721 5724 5726 5729 5732 5734 5737 5739 5741 5743 5745 5745 5747 5749 5750 5750 5751 5751 5752 5751 5751 5751 5751 5751 5751 5750 5749 5748 5746 5744 5742 5739 5737 5735 5733 5730 5727 5723 5719 5714 5710
5711 5712 5715 5718 5721 5724 5726 5728 5731 5733 5735 5737 5739 5740 5742 5744 5745 5746 5746 5746 5746 5746 5746 5746 5746 5746 5745 5744 5743 5741 5740 5738 5736 5732 5729 5726 5724 5720 5718 5714 5708 5704 5699
5705 5706 5709 5712 5714 5717 5721 5722 5724 5727 5729 5731 5732 5734 5736 5738 5739 5740 5740 5741 5740 5740 5740 5740 5740 5739 5738 5738 5736 5734 5732 5730 5727 5725 5720 5717 5715 5712 5708 5704 5699 5694 5688
5699 5700 5702 5705 5708 5711 5713 5715 5717 5720 5722 5723 5725 5727 5729 5731 5732 5733 5734 5734 5734 5733 5732 5732 5731 5730 5729 5728 5726 5724 5723 5721 5718 5715 5713 5710 5706 5702 5697 5693 5687 5683 5677
5690 5692 5694 5697 5700 5703 5706 5708 5709 5711 5713 5715 5717 5719 5721 5723 5725 5725 5726 5725 5725 5725 5725 5725 5724 5722 5720 5718 5716 5714 5712 5711 5709 5706 5702 5699 5695 5692 5687 5682 5677 5670 5666
5680 5683 5687 5690 5693 5696 5698 5701 5703 5704 5705 5707 5709 5711 5712 5714 5716 5717 5717 5717 5717 5716 5716 5715 5714 5713 5711 5709 5707 5705 5703 5701 5698 5695 5691 5687 5684 5680 5676 5671 5663 5657 5653
5669 5674 5677 5681 5684 5687 5690 5691 5695 5696 5696 5698 5700 5702 5703 5703 5705 5705 5706 5706 5707 5707 5706 5706 5705 5703 5701 5699 5698 5695 5692 5690 5686 5683 5679 5676 5670 5669 5665 5659 5654 5649 5644